This is the latest recevied weather packets stored in our database for station/object KC0RPY. If no packets are shown the sender has not sent any weather packets the latest 10 day(s).
| Time | Temp. | Humidity | Pressure | Rain* | Wind** | Luminosity | Snow |
|---|---|---|---|---|---|---|---|
| 1778002419 | 7.22° C | 98% | 1013.9 hPa | 0 mm | - | 98 W/m² | - |
| 1778002117 | 7.22° C | 98% | 1013.5 hPa | 0 mm | - | 141 W/m² | - |
| 1778001814 | 7.22° C | 98% | 1013.5 hPa | 0 mm | - | 174 W/m² | - |
| 1778001514 | 7.22° C | 98% | 1013.5 hPa | 0 mm | - | 196 W/m² | - |
| 1778001211 | 7.22° C | 98% | 1013.5 hPa | 0 mm | - | 231 W/m² | - |
| 1778000907 | 7.22° C | 98% | 1013.5 hPa | 0 mm | - | 154 W/m² | - |
| 1778000604 | 7.22° C | 98% | 1013.2 hPa | 0 mm | - | 247 W/m² | - |
| 1778000300 | 7.22° C | 98% | 1012.8 hPa | 0 mm | - | 169 W/m² | - |
| 1777999995 | 6.67° C | 98% | 1013.2 hPa | 0 mm | - | 128 W/m² | - |
| 1777999691 | 7.22° C | 98% | 1013.5 hPa | 0 mm | - | 81 W/m² | - |
| 1777999389 | 6.67° C | 98% | 1013.5 hPa | 0 mm | - | 78 W/m² | - |
| 1777999087 | 7.22° C | 98% | 1012.8 hPa | 0 mm | - | 79 W/m² | - |
| 1777998785 | 7.22° C | 98% | 1013.2 hPa | 0 mm | - | 137 W/m² | - |
| 1777998483 | 7.22° C | 98% | 1013.2 hPa | 0 mm | - | 95 W/m² | - |
| 1777998179 | 7.22° C | 98% | 1013.2 hPa | 0 mm | - | 109 W/m² | - |
| 1777997876 | 7.22° C | 98% | 1013.2 hPa | 0 mm | - | 103 W/m² | - |
| 1777997573 | 7.78° C | 98% | 1013.2 hPa | 0 mm | - | 55 W/m² | - |
| 1777997270 | 7.78° C | 98% | 1013.5 hPa | 0 mm | - | 23 W/m² | - |
| 1777996968 | 7.78° C | 98% | 1013.9 hPa | 0 mm | - | 17 W/m² | - |
| 1777996664 | 7.78° C | 98% | 1013.9 hPa | 0 mm | - | 19 W/m² | - |
| 1777996360 | 7.78° C | 98% | 1013.9 hPa | 0 mm | - | 23 W/m² | - |
| 1777996057 | 7.78° C | 98% | 1013.9 hPa | 0 mm | - | 55 W/m² | - |
| 1777995753 | 7.78° C | 98% | 1013.2 hPa | 0 mm | - | 92 W/m² | - |
| 1777995450 | 7.78° C | 98% | 1013.2 hPa | 0 mm | - | 94 W/m² | - |
| 1777995147 | 7.78° C | 98% | 1013.5 hPa | 0 mm | - | 109 W/m² | - |
* Rain latest hour (hover to see other rain measurements)
** Current wind speed in m/s (hover to see current wind gust speed)